TimeEST,TemperatureF,Dew PointF,Humidity,Sea Level PressureIn,VisibilityMPH,Wind Direction,Wind SpeedMPH,Gust SpeedMPH,PrecipitationIn,Events,Conditions,WindDirDegrees,DateUTC
12:15 AM,41.0,30.2,65,30.23,10.0,NNW,9.2,-,N/A,,Clear,330,2012-12-30 05:15:00
12:35 AM,41.0,30.2,65,30.24,10.0,NNW,13.8,18.4,N/A,,Mostly Cloudy,330,2012-12-30 05:35:00
8:35 AM,33.8,28.4,81,30.39,10.0,NNW,8.1,-,N/A,,Clear,340,2012-12-30 13:35:00
8:55 AM,35.6,28.4,75,30.39,10.0,North,6.9,-,N/A,,Clear,350,2012-12-30 13:55:00
9:15 AM,37.4,28.4,70,30.40,10.0,North,9.2,-,N/A,,Clear,360,2012-12-30 14:15:00
9:35 AM,37.4,28.4,70,30.41,10.0,NNW,11.5,17.3,N/A,,Clear,340,2012-12-30 14:35:00
9:55 AM,41.0,30.2,65,30.42,10.0,North,10.4,16.1,N/A,,Clear,10,2012-12-30 14:55:00
10:15 AM,41.0,28.4,61,30.43,10.0,North,9.2,17.3,N/A,,Clear,360,2012-12-30 15:15:00
10:35 AM,41.0,30.2,65,30.44,10.0,North,8.1,-,N/A,,Clear,360,2012-12-30 15:35:00
10:55 AM,42.8,30.2,61,30.44,10.0,NNE,10.4,-,N/A,,Clear,20,2012-12-30 15:55:00
11:15 AM,42.8,30.2,61,30.45,10.0,NNE,8.1,-,N/A,,Clear,20,2012-12-30 16:15:00
11:35 AM,42.8,30.2,61,30.44,10.0,NNW,6.9,-,N/A,,Clear,330,2012-12-30 16:35:00
11:55 AM,44.6,30.2,57,30.43,10.0,NNW,4.6,-,N/A,,Clear,330,2012-12-30 16:55:00
12:15 PM,46.4,30.2,53,30.42,10.0,North,3.5,-,N/A,,Clear,360,2012-12-30 17:15:00
12:35 PM,46.4,30.2,53,30.41,10.0,North,6.9,-,N/A,,Clear,350,2012-12-30 17:35:00
12:55 PM,46.4,28.4,50,30.41,10.0,East,3.5,-,N/A,,Clear,80,2012-12-30 17:55:00
1:15 PM,48.2,30.2,50,30.40,10.0,NNW,5.8,-,N/A,,Clear,330,2012-12-30 18:15:00
1:35 PM,48.2,28.4,46,30.39,10.0,Calm,Calm,-,N/A,,Clear,0,2012-12-30 18:35:00
1:55 PM,50.0,28.4,43,30.38,10.0,NNE,4.6,-,N/A,,Clear,30,2012-12-30 18:55:00
2:15 PM,50.0,28.4,43,30.38,10.0,NE,3.5,-,N/A,,Clear,50,2012-12-30 19:15:00
2:35 PM,50.0,30.2,47,30.38,10.0,NNE,4.6,-,N/A,,Clear,30,2012-12-30 19:35:00
2:55 PM,51.8,28.4,41,30.38,10.0,West,3.5,-,N/A,,Clear,280,2012-12-30 19:55:00
3:15 PM,51.8,28.4,41,30.38,10.0,Calm,Calm,-,N/A,,Clear,0,2012-12-30 20:15:00
3:35 PM,51.8,28.4,41,30.39,10.0,Calm,Calm,-,N/A,,Clear,0,2012-12-30 20:35:00
3:55 PM,51.8,28.4,41,30.39,10.0,Calm,Calm,-,N/A,,Clear,0,2012-12-30 20:55:00
4:15 PM,51.8,28.4,41,30.40,10.0,Calm,Calm,-,N/A,,Clear,0,2012-12-30 21:15:00
4:35 PM,51.8,28.4,41,30.39,10.0,Calm,Calm,-,N/A,,Clear,0,2012-12-30 21:35:00
4:55 PM,51.8,28.4,41,30.38,10.0,Calm,Calm,-,N/A,,Clear,0,2012-12-30 21:55:00
5:15 PM,50.0,30.2,47,30.38,10.0,ENE,4.6,-,N/A,,Clear,60,2012-12-30 22:15:00
5:35 PM,46.4,32.0,57,30.38,10.0,Calm,Calm,-,N/A,,Clear,0,2012-12-30 22:35:00
5:55 PM,44.6,32.0,61,30.38,10.0,Calm,Calm,-,N/A,,Clear,0,2012-12-30 22:55:00
6:15 PM,44.6,32.0,61,30.38,10.0,Calm,Calm,-,N/A,,Clear,0,2012-12-30 23:15:00
6:35 PM,42.8,33.8,70,30.39,10.0,Calm,Calm,-,N/A,,Clear,0,2012-12-30 23:35:00
6:55 PM,39.2,33.8,81,30.41,10.0,Calm,Calm,-,N/A,,Clear,0,2012-12-30 23:55:00
7:15 PM,37.4,32.0,81,30.42,10.0,Calm,Calm,-,N/A,,Clear,0,2012-12-31 00:15:00
7:35 PM,37.4,33.8,87,30.42,10.0,Calm,Calm,-,N/A,,Clear,0,2012-12-31 00:35:00
7:55 PM,37.4,33.8,87,30.42,10.0,NE,5.8,-,N/A,,Clear,40,2012-12-31 00:55:00
8:15 PM,37.4,32.0,81,30.41,10.0,NE,3.5,-,N/A,,Clear,50,2012-12-31 01:15:00
8:35 PM,37.4,32.0,81,30.42,10.0,Calm,Calm,-,N/A,,Clear,0,2012-12-31 01:35:00
8:55 PM,35.6,33.8,93,30.43,10.0,Calm,Calm,-,N/A,,Clear,0,2012-12-31 01:55:00
9:15 PM,35.6,32.0,87,30.43,10.0,NE,3.5,-,N/A,,Clear,40,2012-12-31 02:15:00
9:35 PM,37.4,32.0,81,30.43,10.0,Calm,Calm,-,N/A,,Clear,0,2012-12-31 02:35:00
9:55 PM,37.4,32.0,81,30.43,10.0,Calm,Calm,-,N/A,,Clear,0,2012-12-31 02:55:00
10:15 PM,35.6,32.0,87,30.43,10.0,Calm,Calm,-,N/A,,Clear,0,2012-12-31 03:15:00
10:55 PM,35.6,32.0,87,30.40,10.0,East,3.5,-,N/A,,Clear,90,2012-12-31 03:55:00
11:15 PM,37.4,30.2,75,30.40,10.0,East,3.5,-,N/A,,Clear,90,2012-12-31 04:15:00
11:35 PM,35.6,32.0,87,30.42,10.0,Calm,Calm,-,N/A,,Clear,0,2012-12-31 04:35:00
11:55 PM,33.8,32.0,93,30.41,10.0,Calm,Calm,-,N/A,,Clear,0,2012-12-31 04:55:00